Location: The Saddle
(36.8333°N, 80.3417°W)
Time: 12:15:25
(UTC-05:00)

A-11 Canister half - Pass Details

Date: 12 December 2023
Orbit: 1512 x 1687 km, 47.2° (Epoch: 22 February)

Event Time Altitude Azimuth Distance (km) Brightness Sun altitude
Rises 23:44:38 0° 263° (W) 4,691 - -74.8°
Reaches altitude 10° 23:47:47 10° 268° (W) 3,728 - -75.1°
Maximum altitude 23:56:58 53° 344° (NNW) 1,891 - -75.7°
Drops below altitude 10° 00:06:33 10° 60° (ENE) 3,867 - -76.2°
Sets 00:09:53 0° 65° (ENE) 4,877 - -76.2°
